2023/07/15 00:00:00, 0.1,25.0
2023/07/15 00:10:00, 0.1,25.1
2023/07/15 00:20:00, 0.1,25.2
2023/07/15 00:30:00, 0.1,25.3
2023/07/15 00:40:00, 0.1,25.2
2023/07/15 00:50:00, 0.1,25.1
2023/07/15 01:00:00, 0.2,25.3
2023/07/15 01:10:00, 0.2,25.1
2023/07/15 01:20:00, 0.2,24.9
2023/07/15 01:30:00, 0.2,25.1
2023/07/15 01:40:00, 0.2,25.2
2023/07/15 01:50:00, 0.2,25.1
2023/07/15 02:00:00, 0.2,25.3
2023/07/15 02:10:00, 0.2,25.3
2023/07/15 02:20:00, 0.1,25.4
2023/07/15 02:30:00, 0.0,25.2
2023/07/15 02:40:00, 0.0,25.2
2023/07/15 02:50:00, 0.0,25.4
2023/07/15 03:00:00, 0.0,25.5
2023/07/15 03:10:00, 0.0,25.5
2023/07/15 03:20:00, 0.0,25.6
2023/07/15 03:30:00, 0.0,25.6
2023/07/15 03:40:00, 0.0,25.5
2023/07/15 03:50:00, 0.0,25.8
2023/07/15 04:00:00, 0.0,25.7
2023/07/15 04:10:00, 0.0,25.9
2023/07/15 04:20:00, 0.0,25.6
2023/07/15 04:30:00, 0.1,25.7
2023/07/15 04:40:00, 0.1,25.7
2023/07/15 04:50:00, 0.1,25.6
2023/07/15 05:00:00, 0.0,25.5
2023/07/15 05:10:00, 0.0,25.6
2023/07/15 05:20:00, 0.0,25.8
2023/07/15 05:30:00, 0.0,25.8
2023/07/15 05:40:00, 0.0,25.7
2023/07/15 05:50:00, 0.1,25.7
2023/07/15 06:00:00, 0.0,25.9
2023/07/15 06:10:00, 0.1,26.0
2023/07/15 06:20:00, 0.1,26.2
2023/07/15 06:30:00, 4.2,26.2
2023/07/15 06:40:00, 5.2,26.5
2023/07/15 06:50:00,10.3,26.5
2023/07/15 07:00:00, 7.3,26.6
2023/07/15 07:10:00, 3.9,26.6
2023/07/15 07:20:00, 4.5,26.8
2023/07/15 07:30:00, 6.0,26.9
2023/07/15 07:40:00, 5.0,26.9
2023/07/15 07:50:00, 9.8,27.1
2023/07/15 08:00:00, 2.3,27.2
2023/07/15 08:10:00, 1.0,27.7
2023/07/15 08:20:00, 2.7,27.8
2023/07/15 08:30:00, 8.4,28.1
2023/07/15 08:40:00,11.7,28.3
2023/07/15 08:50:00,10.9,29.1
2023/07/15 09:00:00, 8.5,29.2
2023/07/15 09:10:00,---,30.1
2023/07/15 09:20:00, 0.0,30.0
2023/07/15 09:30:00,---,29.8
2023/07/15 09:40:00,---,29.9
2023/07/15 09:50:00, 0.2,31.1
2023/07/15 10:00:00, 0.0,31.0
2023/07/15 10:10:00, 0.0,30.8
2023/07/15 10:20:00, 0.0,31.3
2023/07/15 10:30:00,---,31.8
2023/07/15 10:40:00, 0.0,31.9
2023/07/15 10:50:00, 0.1,32.3
2023/07/15 11:00:00, 0.0,31.8
2023/07/15 11:10:00, 0.1,31.8
2023/07/15 11:20:00, 0.0,31.8
2023/07/15 11:30:00, 0.1,32.4
2023/07/15 11:40:00, 0.1,31.6
2023/07/15 11:50:00, 0.7,31.1
2023/07/15 12:00:00, 2.1,31.2
2023/07/15 12:10:00, 4.6,31.1
2023/07/15 12:20:00, 1.9,32.1
2023/07/15 12:30:00, 0.2,32.5
2023/07/15 12:40:00, 0.2,32.1
2023/07/15 12:50:00, 0.3,32.5
2023/07/15 13:00:00, 0.2,32.6
2023/07/15 13:10:00, 0.1,32.1
2023/07/15 13:20:00, 0.2,32.0
2023/07/15 13:30:00, 0.1,32.1
2023/07/15 13:40:00, 0.1,32.8
2023/07/15 13:50:00, 0.1,32.5
2023/07/15 14:00:00, 0.2,32.3
2023/07/15 14:10:00, 0.2,32.3
2023/07/15 14:20:00, 0.2,32.2
2023/07/15 14:30:00, 0.1,32.8
2023/07/15 14:40:00, 0.5,32.1
2023/07/15 14:50:00, 2.7,32.6
2023/07/15 15:00:00, 2.4,32.5
2023/07/15 15:10:00, 0.1,32.7
2023/07/15 15:20:00, 0.0,32.4
2023/07/15 15:30:00, 0.1,32.1
2023/07/15 15:40:00, 0.1,32.7
2023/07/15 15:50:00, 0.1,32.8
2023/07/15 16:00:00, 0.5,33.4
2023/07/15 16:10:00, 8.0,32.5
2023/07/15 16:20:00, 7.2,32.1
2023/07/15 16:30:00, 6.3,31.2
2023/07/15 16:40:00, 0.9,31.4
2023/07/15 16:50:00, 0.2,31.3
2023/07/15 17:00:00, 0.2,32.0
2023/07/15 17:10:00, 0.2,32.2
2023/07/15 17:20:00, 0.2,31.9
2023/07/15 17:30:00, 0.2,31.6
2023/07/15 17:40:00, 0.3,31.9
2023/07/15 17:50:00, 3.8,31.7
2023/07/15 18:00:00, 2.6,31.1
2023/07/15 18:10:00, 1.1,30.4
2023/07/15 18:20:00, 0.0,29.9
2023/07/15 18:30:00, 0.0,29.5
2023/07/15 18:40:00, 0.0,29.4
2023/07/15 18:50:00, 0.0,29.0
2023/07/15 19:00:00, 0.0,28.8
2023/07/15 19:10:00, 0.0,28.5
2023/07/15 19:20:00, 0.0,28.3
2023/07/15 19:30:00, 0.0,27.9
2023/07/15 19:40:00, 0.0,27.8
2023/07/15 19:50:00, 0.0,27.6
2023/07/15 20:00:00, 0.0,27.5
2023/07/15 20:10:00, 0.1,27.5
2023/07/15 20:20:00, 0.1,27.4
2023/07/15 20:30:00, 0.1,27.5
2023/07/15 20:40:00, 0.1,27.3
2023/07/15 20:50:00, 0.1,26.7
2023/07/15 21:00:00, 0.1,26.9
2023/07/15 21:10:00, 0.1,26.9
2023/07/15 21:20:00, 0.1,26.4
2023/07/15 21:30:00, 0.1,26.5
2023/07/15 21:40:00, 0.1,26.7
2023/07/15 21:50:00, 0.1,26.6
2023/07/15 22:00:00, 0.1,26.5
2023/07/15 22:10:00, 0.0,26.5
2023/07/15 22:20:00, 0.1,27.0
2023/07/15 22:30:00, 0.1,26.9
2023/07/15 22:40:00, 0.1,27.1
2023/07/15 22:50:00, 0.1,27.1
2023/07/15 23:00:00, 0.1,27.0
2023/07/15 23:10:00, 0.0,27.0
2023/07/15 23:20:00, 0.1,27.1
2023/07/15 23:30:00, 0.1,27.1
2023/07/15 23:40:00, 0.1,27.2
2023/07/15 23:50:00, 0.1,27.1
